Total_Precipitation_Accumulation
0.08 0.07 0.08 0.08 0.07 0.06 0.03 0.03 0.02 0.01 0.01 0.01 0.01 0.00 0.00 0.00 0.00 0.00 0.00 0.00 0.00 0.00 0.00 0.03 0.18 0.37 0.55 0.59 0.72 0.84 1.74 0.44 0.11 0.23 0.07 0.01 0.04 0.03 0.02 0.00 0.02 0.05 0.15 0.03 0.01
0.09 0.07 0.07 0.08 0.06 0.05 0.04 0.03 0.01 0.01 0.01 0.01 0.01 0.00 0.00 0.00 0.00 0.00 0.00 0.00 0.00 0.00 0.05 0.08 0.25 0.30 1.09 0.63 0.63 0.62 0.88 0.13 0.04 0.08 0.07 0.02 0.03 0.03 0.04 0.04 0.11 0.00 0.02 0.00 0.00
0.07 0.07 0.07 0.07 0.06 0.05 0.04 0.03 0.01 0.01 0.00 0.01 0.01 0.00 0.00 0.00 0.00 0.00 0.00 0.00 0.00 0.04 0.07 0.17 0.33 0.28 0.96 0.54 0.96 0.29 0.36 0.01 0.01 0.00 0.03 0.07 0.01 0.02 0.07 0.17 0.12 0.00 0.00 0.00 0.00
0.07 0.07 0.06 0.06 0.06 0.06 0.04 0.02 0.01 0.00 0.01 0.01 0.00 0.00 0.00 0.00 0.00 0.00 0.00 0.00 0.01 0.03 0.03 0.21 0.72 0.96 0.28 0.31 0.15 0.35 0.07 0.00 0.00 0.00 0.02 0.03 0.00 0.01 0.01 0.04 0.00 0.00 0.00 0.00 0.01
0.06 0.06 0.05 0.05 0.06 0.05 0.04 0.02 0.01 0.00 0.01 0.01 0.00 0.00 0.00 0.00 0.00 0.00 0.00 0.00 0.02 0.00 0.00 0.05 0.26 0.25 0.20 0.16 0.16 0.14 0.03 0.01 0.00 0.00 0.00 0.00 0.00 0.00 0.01 0.04 0.04 0.00 0.00 0.00 0.00
0.06 0.06 0.05 0.05 0.06 0.04 0.03 0.02 0.01 0.00 0.00 0.00 0.00 0.00 0.00 0.00 0.00 0.00 0.00 0.00 0.01 0.01 0.01 0.01 0.00 0.00 0.07 0.09 0.19 0.09 0.03 0.02 0.02 0.01 0.01 0.00 0.00 0.00 0.00 0.05 0.06 0.02 0.00 0.00 0.01
0.07 0.06 0.05 0.05 0.05 0.04 0.02 0.01 0.00 0.00 0.00 0.00 0.00 0.00 0.00 0.00 0.00 0.00 0.00 0.00 0.00 0.01 0.01 0.01 0.00 0.01 0.06 0.14 0.12 0.05 0.06 0.02 0.01 0.03 0.01 0.02 0.03 0.02 0.01 0.01 0.02 0.02 0.06 0.12 0.15
0.06 0.06 0.06 0.05 0.04 0.03 0.01 0.00 0.00 0.00 0.00 0.00 0.00 0.00 0.00 0.00 0.00 0.00 0.00 0.00 0.00 0.00 0.00 0.00 0.00 0.02 0.10 0.14 0.24 0.17 0.28 0.19 0.05 0.03 0.05 0.08 0.34 0.05 0.01 0.02 0.05 0.12 0.21 0.32 0.31
0.06 0.06 0.05 0.05 0.04 0.03 0.01 0.00 0.00 0.00 0.00 0.00 0.00 0.00 0.00 0.00 0.00 0.00 0.00 0.00 0.00 0.00 0.00 0.00 0.00 0.01 0.04 0.21 0.38 0.23 0.60 0.43 0.24 0.04 0.12 0.18 0.55 0.16 0.02 0.07 0.05 0.17 0.59 0.48 0.36
0.06 0.05 0.04 0.05 0.04 0.03 0.00 0.00 0.00 0.00 0.00 0.00 0.00 0.00 0.00 0.00 0.00 0.00 0.00 0.00 0.00 0.00 0.00 0.00 0.00 0.00 0.07 0.22 0.26 0.18 0.18 0.23 0.32 0.14 0.12 0.21 0.73 0.54 0.06 0.02 0.06 0.29 0.99 0.26 0.19
0.05 0.05 0.05 0.04 0.03 0.02 0.00 0.01 0.00 0.00 0.00 0.00 0.00 0.00 0.00 0.00 0.00 0.00 0.00 0.00 0.00 0.00 0.00 0.00 0.00 0.00 0.02 0.02 0.02 0.04 0.07 0.19 0.27 0.19 0.14 0.26 0.50 0.45 0.08 0.13 0.06 0.18 0.69 0.37 0.11
0.05 0.05 0.04 0.02 0.01 0.01 0.00 0.00 0.00 0.00 0.00 0.00 0.00 0.00 0.00 0.00 0.00 0.00 0.00 0.00 0.00 0.00 0.00 0.00 0.00 0.00 0.00 0.00 0.00 0.00 0.01 0.17 0.15 0.15 0.12 0.41 0.65 0.21 0.13 0.27 0.29 0.05 0.30 0.21 0.27
0.05 0.05 0.04 0.01 0.00 0.00 0.00 0.00 0.00 0.00 0.00 0.00 0.00 0.00 0.00 0.00 0.00 0.00 0.00 0.00 0.00 0.00 0.00 0.00 0.00 0.01 0.00 0.00 0.00 0.00 0.01 0.04 0.10 0.07 0.09 0.11 0.16 0.21 0.18 0.12 0.13 0.06 0.05 0.15 0.30
0.06 0.06 0.05 0.00 0.00 0.00 0.00 0.00 0.00 0.00 0.00 0.00 0.00 0.00 0.00 0.00 0.00 0.00 0.00 0.00 0.00 0.00 0.00 0.00 0.00 0.00 0.00 0.00 0.00 0.00 0.01 0.00 0.03 0.04 0.11 0.06 0.52 0.35 0.37 0.16 0.22 0.13 0.09 0.04 0.11
0.06 0.06 0.06 0.01 0.00 0.00 0.00 0.00 0.00 0.00 0.00 0.00 0.00 0.00 0.00 0.00 0.00 0.00 0.00 0.00 0.00 0.00 0.00 0.00 0.00 0.00 0.00 0.00 0.00 0.00 0.00 0.00 0.00 0.00 0.01 0.03 0.13 0.26 0.42 0.46 0.55 0.28 0.21 0.18 0.12
0.04 0.07 0.07 0.00 0.00 0.00 0.00 0.00 0.00 0.00 0.00 0.00 0.00 0.00 0.00 0.00 0.00 0.00 0.00 0.00 0.00 0.00 0.00 0.00 0.00 0.00 0.00 0.00 0.00 0.00 0.00 0.00 0.00 0.00 0.02 0.02 0.03 0.25 0.25 0.50 0.44 0.45 0.18 0.22 0.59
0.02 0.02 0.05 0.00 0.00 0.00 0.00 0.00 0.00 0.00 0.00 0.00 0.00 0.00 0.00 0.00 0.00 0.00 0.00 0.00 0.00 0.00 0.00 0.00 0.00 0.00 0.00 0.00 0.00 0.00 0.00 0.00 0.00 0.00 0.06 0.01 0.01 0.03 0.03 0.04 0.30 0.24 0.46 1.22 0.81
0.00 0.00 0.00 0.00 0.00 0.00 0.00 0.00 0.00 0.00 0.00 0.00 0.00 0.00 0.00 0.00 0.00 0.00 0.00 0.00 0.00 0.00 0.00 0.00 0.00 0.00 0.00 0.00 0.00 0.00 0.00 0.00 0.00 0.00 0.00 0.00 0.00 0.02 0.04 0.05 0.10 0.32 0.85 1.18 0.70
0.00 0.00 0.00 0.00 0.00 0.00 0.00 0.00 0.00 0.00 0.00 0.00 0.00 0.00 0.00 0.00 0.00 0.00 0.00 0.00 0.00 0.00 0.00 0.00 0.00 0.00 0.00 0.00 0.00 0.00 0.00 0.00 0.00 0.00 0.00 0.00 0.03 0.03 0.03 0.08 0.23 0.41 0.48 0.64 0.97
0.00 0.00 0.00 0.00 0.00 0.00 0.00 0.00 0.00 0.00 0.00 0.00 0.00 0.00 0.00 0.00 0.00 0.00 0.00 0.00 0.00 0.00 0.00 0.00 0.00 0.00 0.00 0.00 0.00 0.00 0.00 0.00 0.00 0.00 0.00 0.00 0.04 0.30 0.26 0.26 0.55 0.28 0.29 0.67 0.82
0.00 0.00 0.00 0.00 0.00 0.00 0.00 0.00 0.00 0.00 0.00 0.00 0.00 0.00 0.00 0.00 0.00 0.00 0.00 0.00 0.00 0.00 0.00 0.00 0.00 0.00 0.00 0.00 0.00 0.00 0.00 0.00 0.00 0.00 0.01 0.02 0.23 0.53 0.32 0.42 0.37 0.19 0.42 0.72 0.74
0.00 0.00 0.00 0.00 0.00 0.00 0.00 0.00 0.00 0.00 0.00 0.00 0.00 0.00 0.00 0.00 0.00 0.00 0.00 0.00 0.00 0.00 0.00 0.00 0.00 0.00 0.00 0.00 0.00 0.00 0.02 0.05 0.02 0.06 0.04 0.01 0.12 0.28 0.31 0.31 0.38 0.81 1.72 1.41 1.05
0.00 0.00 0.00 0.00 0.00 0.00 0.00 0.00 0.00 0.00 0.00 0.00 0.00 0.00 0.00 0.00 0.00 0.00 0.00 0.00 0.00 0.00 0.00 0.00 0.00 0.00 0.00 0.00 0.01 0.04 0.06 0.07 0.02 0.01 0.04 0.21 0.22 0.32 0.42 0.67 1.27 1.68 1.79 1.40 1.36
0.00 0.00 0.00 0.00 0.00 0.00 0.01 0.00 0.03 0.02 0.02 0.02 0.00 0.00 0.00 0.00 0.00 0.00 0.00 0.00 0.00 0.00 0.00 0.00 0.01 0.00 0.01 0.01 0.00 0.00 0.00 0.01 0.02 0.02 0.05 0.23 0.22 0.49 0.60 0.49 1.22 1.52 2.06 2.39 2.37
0.00 0.01 0.06 0.07 0.05 0.02 0.06 0.03 0.06 0.19 0.17 0.10 0.07 0.00 0.00 0.00 0.00 0.00 0.00 0.00 0.00 0.00 0.00 0.00 0.00 0.01 0.01 0.02 0.01 0.01 0.00 0.02 0.01 0.04 0.16 0.09 0.22 1.01 1.48 0.63 0.87 1.37 3.22 3.22 2.29
0.04 0.09 0.06 0.02 0.07 0.06 0.10 0.30 0.35 0.16 0.21 0.20 0.22 0.22 0.02 0.00 0.00 0.00 0.00 0.00 0.00 0.00 0.00 0.00 0.00 0.00 0.01 0.02 0.01 0.03 0.09 0.03 0.02 0.02 0.03 0.04 0.18 0.81 0.65 0.43 0.60 0.79 1.50 2.02 1.95
0.15 0.16 0.19 0.03 0.00 0.15 0.24 0.25 0.28 0.20 0.09 0.23 0.15 0.24 0.08 0.02 0.01 0.00 0.00 0.00 0.00 0.00 0.00 0.00 0.00 0.00 0.00 0.02 0.02 0.05 0.13 0.15 0.21 0.25 0.21 0.35 0.58 0.86 0.75 1.10 0.75 0.70 0.75 0.66 0.75